Location: Newark
(12.4436°N, 0.6167°W)
Time: 02:52:29
(UTC+00:00)

Vanguard 2 - Pass Details

Date: 08 December 2019
Orbit: 553 x 2938 km, 32.9° (Epoch: 19 January)

Event Time Altitude Azimuth Distance (km) Brightness Sun altitude
Rises 20:49:38 0° 194° (SSW) 4,132 11.6 -45.0°
Reaches altitude 10° 20:53:12 10° 176° (S) 3,542 11.0 -45.8°
Enters shadow 20:53:52 12° 172° (S) 3,472 10.9 -45.9°
Maximum altitude 20:59:35 20° 133° (SE) 3,463 - -47.2°
Drops below altitude 10° 21:08:01 10° 94° (E) 4,892 - -49.2°
Sets 21:14:14 0° 79° (E) 6,309 - -50.6°
